Regional Weather Roundup
Issued by NWS New Orleans/Baton Rouge, LA

Home | Current Version | Previous Version | Graphics & Text | Print | Product List | Glossary On
Versions: 1 2 3 4 5 6 7 8 9 10 11 12 13 14 15 16 17 18 19 20 21 22 23 24 25 26 27 28 29 30 31 32 33 34 35 36 37 38 39 40 41 42 43 44 45 46 47 48 49 50
970
ASUS44 KLIX 211805
RWRLIX
NEW ORLEANS REGIONAL WEATHER ROUNDUP
NATIONAL WEATHER SERVICE NEW ORLEANS LA
1200 PM CST SUN DEC 21 2014

NOTE: "FAIR" INDICATES FEW OR NO CLOUDS BELOW 12,000 FEET WITH NO
      SIGNIFICANT WEATHER AND/OR OBSTRUCTIONS TO VISIBILITY.
      SKY/WX - SKY CONDITION AND SIGNIFICANT WEATHER.
      TMP - AIR TEMPERATURE.     DP    - DEWPOINT TEMPERATURE.
      RH  - RELATIVE HUMIDITY.   PRES  - PRESSURE.
      HI  - HEAT INDEX.          WCI   - WIND CHILL INDEX.

*  THESE STATIONS ARE NOT NWS OR FAA STATIONS AND ARE NOT UNDER
   NWS QUALITY CONTROL.

LAZ038-040-048-061>063-065>067-069-211900-
SOUTHEAST LOUISIANA

CITY           SKY/WX    TMP DP  RH WIND       PRES   REMARKS
N.O. AUDUBON     N/A     59  53  81 MISG        N/A
6HR MIN TEMP:  50; 6HR MAX TEMP:  59;

N.O. INTL ARPT CLOUDY    58  49  72 CALM      30.10F
6HR MIN TEMP:  52; 6HR MAX TEMP:  58;

N.O. LAKEFRONT CLOUDY    57  50  77 CALM      30.10F
6HR MIN TEMP:  53; 6HR MAX TEMP:  57;

N.O. DOWNTOWN* CLOUDY    57  48  72 NE5       30.10F
6HR MIN TEMP:  52; 6HR MAX TEMP:  57;

SLIDELL        CLOUDY    59  49  69 CALM      30.09F
6HR MIN TEMP:  48; 6HR MAX TEMP:  59;

BATON ROUGE    CLOUDY    56  47  71 CALM      30.09F
6HR MIN TEMP:  47; 6HR MAX TEMP:  56;

BOOTHVILLE     CLOUDY    59  55  87 NE5       30.07F
6HR MIN TEMP:  55; 6HR MAX TEMP:  59;

BELLE CHASSE   CLOUDY    58  51  78 SE5       30.10S
6HR MIN TEMP:  52; 6HR MAX TEMP:  58;

BOGALUSA*        N/A     58  48  68 CALM      30.11F
6HR MIN TEMP:  45; 6HR MAX TEMP:  58;

GALLIANO*      CLOUDY    58  53  82 MISG      30.10F
6HR MIN TEMP:  55; 6HR MAX TEMP:  58;

NEW ROADS*     MOCLDY    52  47  83 CALM      30.09F
6HR MIN TEMP:  45; 6HR MAX TEMP:  52;

GONZALES*      CLOUDY    56  52  85 N3        30.08F
6HR MIN TEMP:  48; 6HR MAX TEMP:  57;

HAMMOND*       NOT AVBL
HOUMA*         CLOUDY    55  52  88 NE5       30.09F
PORT FOURCHON* CLOUDY    57  54  88 NE9       30.11

$$

MSZ070-080>082-211900-
SOUTHERN MISSISSIPPI

CITY           SKY/WX    TMP DP  RH WIND       PRES   REMARKS
MCCOMB         CLOUDY    54  47  77 VRB5      30.09F
6HR MIN TEMP:  41; 6HR MAX TEMP:  54;

GULFPORT       PTSUNNY   59  50  72 CALM      30.08F
6HR MIN TEMP:  50; 6HR MAX TEMP:  59;

BILOXI         CLOUDY    58  51  77 E5        30.08F
6HR MIN TEMP:  49; 6HR MAX TEMP:  59;

PASCAGOULA     CLOUDY    56  52  86 E3        30.08F
6HR MIN TEMP:  49; 6HR MAX TEMP:  56;

STENNIS ARPT*  MOSUNNY   57  46  67 CALM      30.09F

$$

COASTAL OBSERVATIONS
LAKE AND NEARSHORE STATIONS

STATION/POSITION TIME  TEMP    WIND        PRES    WAVE
                       AIR SEA DIR/SP/G            HT/PER
                 (UTC) (F)     (DEG/KT/KT) (MB)    (FT/S)
PASCAGOULA       1800   56      70/  5/  8 1018.2
WAVELAND YACHT   1800   54     160/  9/ 10 1018.0
GRAND ISLE       1800   58 60   40/  6/  7 1019.0
SOUTHWEST PASS   1800   61                 1017.9
NEW CANAL        1800   54 56   30/  2/  3 1019.5
SHELL BEACH      1800   55 56   50/  6/  6 1018.7

OFFSHORE STATIONS

STATION/POSITION TIME  TEMP    WIND        PRES    WAVE
                       AIR SEA DIR/SP/G            HT/PER
                 (UTC) (F)     (DEG/KT/KT) (MB)    (FT/S)
64 S DAUPHIN ISL 1800   66 74   70/ 10/ 14 1016.9    4/ 6

$$




USA.gov is the U.S. government's official web portal to all federal, state and local government web resources and services.